Location: Newark
(45.4422°N, 16.2769°E)
Time: 21:21:21
(UTC+00:00)

Tiros 1 despin weight - Pass Details

Date: 16 December 2019
Orbit: 594 x 642 km, 48.2° (Epoch: 25 January)

Event Time Altitude Azimuth Distance (km) Brightness Sun altitude
Rises 08:11:37 0° 286° (WNW) 2,854 ? 12.4°
Reaches altitude 10° 08:14:21 10° 270° (W) 1,940 ? 12.6°
Maximum altitude 08:17:42 21° 221° (SW) 1,343 ? 13.0°
Drops below altitude 10° 08:21:02 10° 171° (S) 1,919 ? 13.3°
Sets 08:23:43 0° 156° (SSE) 2,814 ? 13.6°
